[[{"header":{"parameterUnit":"m.s-1","parameterCategory":1,"la1":30.2991,"la2":30.254,"lo1":-89.0895,"lo2":-89.0444,"dy":0.0017,"dx":0.0017,"nx":28,"ny":28,"refTime":"2024-08-11T15:00:00:Z","depth":0,"parameterNumber":2,"parameterNumberName":"U-component_of_WINDS"},"data":[0,0,0,0,0,0,0,0,0,0,0,0,0,0,0,0,0,0,0,0,0,0,0,0,0,0,0,0,0,0,0,0,0,0,0,0,0,0,0,0,0,0,0,0,0,0,0,0,0,0,0,0,0,0,0,0,0,0,-1.0909,-1.0908,0,-1.0885,-1.0885,-1.0885,-1.0769,-1.0766,-1.0763,-1.0761,-1.0741,-1.0743,-1.0745,0,0,0,0,0,0,0,0,0,0,0,0,0,-1.0857,-1.0859,-1.0909,-1.0908,-1.0908,-1.0885,-1.0885,-1.0884,-1.0769,-1.0766,-1.0763,-1.076,-1.074,-1.0743,-1.0745,0,0,0,0,0,0,0,0,0,0,0,0,0,-1.0861,-1.0859,-1.0909,-1.0848,-1.0842,-1.0885,-1.0885,-1.0884,-1.077,-1.0766,-1.0762,-1.0758,-1.074,-1.0743,-1.0746,-1.0847,0,0,-1.0755,-1.0756,0,0,0,0,0,0,0,0,-1.0861,-1.0863,-1.0857,-1.0852,-1.0846,-1.0826,-1.0859,-1.0872,-1.0771,-1.0798,-1.0761,-1.0756,-1.0773,-1.0773,-1.0778,-1.0846,-1.0845,-1.0755,-1.0757,-1.0758,-1.0759,0,0,0,0,0,0,0,-1.0861,-1.0864,-1.0899,-1.0857,-1.085,-1.0823,-1.0819,-1.0861,-1.0809,-1.0795,-1.0787,-1.0785,-1.0769,-1.0775,-1.0776,-1.0845,-1.0755,-1.0758,-1.076,-1.0761,-1.0995,-1.0999,0,0,0,0,0,0,-1.0869,-1.0864,-1.09,-1.0899,-1.0843,-1.0827,-1.0822,-1.0836,-1.0808,-1.08,-1.0789,-1.078,-1.0772,-1.0773,-1.0775,-1.0893,-1.0758,-1.0761,-1.0763,-1.099,-1.0996,-1.1001,0,0,0,0,0,0,-1.0868,-1.0873,-1.0901,-1.0879,-1.0881,-1.0832,-1.0849,-1.0838,-1.0844,-1.0803,-1.0793,-1.0804,-1.0769,-1.0771,-1.083,-1.089,-1.0762,-1.0765,-1.0985,-1.0992,-1.0998,-1.1128,0,0,0,0,0,0,-1.0867,-1.0874,-1.0911,-1.0881,-1.0882,-1.0956,-1.0852,-1.0841,-1.0849,-1.0837,-1.0815,-1.0808,-1.0766,-1.0826,-1.0833,-1.0892,-1.0768,-1.098,-1.0988,-1.0996,-1.1118,-1.1138,-1.1155,0,0,0,0,0,-1.0866,-1.095,-1.0914,-1.0919,-1.0928,-1.0959,-1.096,-1.0909,-1.0854,-1.0892,-1.0866,-1.0808,-1.0882,-1.0833,-1.0839,-1.0901,-1.0976,-1.0986,-1.0995,-1.111,-1.1134,-1.1155,0,0,0,0,0,0,-1.099,-1.0945,-1.0904,-1.098,-1.0974,-1.094,-1.0986,-1.0936,-1.0947,-1.0936,-1.0872,-1.0868,-1.0937,-1.0924,-1.087,-1.0997,-1.0919,-1.0931,-1.1004,-1.1027,-1.1045,-1.1048,-1.077,0,0,0,0,0,-1.1026,-1.1054,-1.1013,-1.1084,-1.1083,-1.1035,-1.1047,-1.1008,-1.0999,-1.0997,-1.0975,-1.097,-1.0992,-1.1008,-1.1026,-1.1115,-1.1109,-1.116,-1.1179,-1.1194,-1.1206,-1.1253,-1.1276,-1.1033,-1.1033,-1.1033,0,0,-1.1102,-1.108,-1.1102,-1.1109,-1.1099,-1.1131,-1.1034,-1.1072,-1.1095,-1.1003,-1.1057,-1.1041,-1.1031,-1.1106,-1.1137,-1.1097,-1.1271,-1.1207,-1.122,-1.1223,-1.1266,-1.1289,-1.1309,-1.104,-1.1038,-1.1037,0,0,-1.1256,-1.1241,-1.1299,-1.1291,-1.1278,-1.1245,-1.1259,-1.1231,-1.1216,-1.1269,-1.1201,-1.1228,-1.1266,-1.1263,-1.1266,-1.1417,-1.1365,-1.1424,-1.1523,-1.1569,-1.1588,-1.1605,-1.1661,-1.1681,-1.1435,-1.1436,-1.1436,0,-1.1352,-1.1396,-1.1336,-1.1378,-1.1383,-1.1299,-1.1358,-1.1353,-1.1347,-1.1354,-1.1308,-1.1354,-1.1342,-1.1415,-1.1452,-1.1456,-1.1472,-1.1428,-1.159,-1.1606,-1.1621,-1.1673,-1.1694,-1.1443,-1.1442,-1.1442,-1.1441,0,-1.1515,-1.1546,-1.1595,-1.1589,-1.16,-1.165,-1.1599,-1.1617,-1.1576,-1.1549,-1.1604,-1.1586,-1.1599,-1.1612,-1.1573,-1.168,-1.1655,-1.1601,-1.1522,-1.1653,-1.1701,-1.172,-1.1454,-1.1451,-1.1449,-1.1447,0,0,-1.175,-1.1708,-1.1728,-1.1724,-1.1702,-1.1726,-1.1772,-1.1783,-1.1801,-1.1798,-1.1837,-1.1871,-1.182,-1.1824,-1.1783,-1.1824,-1.1946,-1.1764,-1.1763,-1.1801,-1.2064,-1.2107,-1.2131,-1.191,-1.1914,-1.1917,-1.2066,0,-1.1898,-1.1975,-1.1921,-1.2007,-1.2036,-1.1955,-1.1996,-1.1988,-1.1963,-1.1984,-1.1956,-1.1982,-1.1912,-1.1914,-1.195,-1.1924,-1.1999,-1.1912,-1.1948,-1.195,-1.1956,-1.2156,-1.2202,-1.2343,-1.2084,-1.2087,-1.2089,0,-1.2083,-1.2087,-1.2176,-1.2147,-1.2157,-1.2195,-1.22,-1.2221,-1.221,-1.2189,-1.2193,-1.2141,-1.2186,-1.2106,-1.2167,-1.211,-1.2121,-1.211,-1.2114,-1.2118,-1.203,-1.2168,-1.2387,-1.2409,-1.2118,-1.2116,-1.2114,0,-1.2248,-1.2275,-1.2332,-1.2331,-1.2299,-1.2327,-1.2315,-1.2299,-1.2309,-1.2314,-1.232,-1.2331,-1.2338,-1.2348,-1.2301,-1.2247,-1.237,-1.2285,-1.2355,-1.2357,-1.2387,-1.2387,-1.2614,-1.2391,-1.239,-1.239,-1.2389,0,-1.2421,-1.2479,-1.2405,-1.2441,-1.2503,-1.2441,-1.2505,-1.2485,-1.2471,-1.2502,-1.2432,-1.2463,-1.2398,-1.2422,-1.2386,-1.2444,-1.2447,-1.2432,-1.2422,-1.244,-1.2442,-1.2449,-1.2439,-1.2395,-1.2394,-1.2393,-1.2392,0,-1.2617,-1.257,-1.2626,-1.259,-1.2582,-1.263,-1.26,-1.2632,-1.26,-1.264,-1.2646,-1.2599,-1.2623,-1.2577,-1.2596,-1.2572,-1.2653,-1.2626,-1.2657,-1.265,-1.2723,-1.2718,-1.2965,-1.2995,-1.2751,-1.2753,-1.2755,0,-1.2732,-1.2774,-1.2742,-1.2756,-1.2748,-1.2773,-1.2782,-1.2722,-1.2734,-1.2724,-1.2758,-1.2776,-1.2788,-1.2831,-1.28,-1.2814,-1.2789,-1.2874,-1.2791,-1.2807,-1.2793,-1.2792,-1.2797,-1.2893,-1.2896,-1.2898,-1.29,0,-1.2942,-1.2916,-1.2931,-1.2938,-1.295,-1.2953,-1.2951,-1.2968,-1.2904,-1.2922,-1.2945,-1.2955,-1.2973,-1.2993,-1.3,-1.2988,-1.2935,-1.2926,-1.2943,-1.2963,-1.298,-1.2974,-1.2706,-1.2922,-1.2919,-1.2918,-1.2917,-1.2916,-1.3102,-1.3136,-1.3118,-1.3137,-1.3129,-1.3129,-1.3156,-1.3128,-1.3146,-1.3156,-1.3119,-1.3151,-1.3138,-1.3141,-1.3136,-1.3161,-1.3123,-1.3148,-1.3155,-1.3162,-1.3175,-1.2974,-1.3162,-1.3161,-1.316,-1.316,-1.3159,0,-1.331,-1.3294,-1.3312,-1.331,-1.3326,-1.327,-1.3265,-1.3282,-1.3311,-1.3303,-1.3315,-1.3342,-1.3361,-1.333,-1.3343,-1.337,-1.3346,-1.3376,-1.3375,-1.3373,-1.3207,-1.3192,-1.3395,-1.3395,-1.3395,-1.3395,-1.3395,-1.3395,-1.342,-1.3475,-1.3447,-1.3497,-1.348,-1.351,-1.3512,-1.3512,-1.3505,-1.3538,-1.3552,-1.3531,-1.3514,-1.3525,-1.354,-1.353,-1.354,-1.3579,-1.3562,-1.3408,-1.3385,-1.3363,-1.3348,-1.3581,-1.3582,-1.3726,-1.3727,-1.3728]},{"header":{"parameterUnit":"m.s-1","parameterCategory":1,"la1":30.2991,"la2":30.254,"lo1":-89.0895,"lo2":-89.0444,"dy":0.0017,"dx":0.0017,"nx":28,"ny":28,"refTime":"2024-08-11T15:00:00:Z","depth":0,"parameterNumber":3,"parameterNumberName":"V-component_of_WINDS"},"data":[0,0,0,0,0,0,0,0,0,0,0,0,0,0,0,0,0,0,0,0,0,0,0,0,0,0,0,0,0,0,0,0,0,0,0,0,0,0,0,0,0,0,0,0,0,0,0,0,0,0,0,0,0,0,0,0,0,0,-2.3369,-2.337,0,-2.345,-2.345,-2.3451,-2.348,-2.348,-2.3479,-2.3479,-2.356,-2.3562,-2.3565,0,0,0,0,0,0,0,0,0,0,0,0,0,-2.3236,-2.3238,-2.3369,-2.337,-2.3371,-2.3449,-2.3451,-2.3452,-2.348,-2.348,-2.3479,-2.3479,-2.3559,-2.3562,-2.3565,0,0,0,0,0,0,0,0,0,0,0,0,0,-2.3303,-2.3239,-2.3368,-2.3394,-2.3397,-2.3449,-2.3451,-2.3452,-2.348,-2.348,-2.3479,-2.3479,-2.3558,-2.3562,-2.3565,-2.3596,0,0,-2.3576,-2.3578,0,0,0,0,0,0,0,0,-2.3299,-2.3308,-2.3389,-2.3393,-2.3396,-2.3454,-2.3433,-2.35,-2.348,-2.3449,-2.3479,-2.3479,-2.3525,-2.3531,-2.3547,-2.36,-2.3604,-2.3577,-2.3579,-2.358,-2.3581,0,0,0,0,0,0,0,-2.3294,-2.3304,-2.3401,-2.3391,-2.3395,-2.3401,-2.341,-2.3446,-2.3488,-2.3451,-2.3454,-2.3463,-2.3527,-2.3544,-2.3549,-2.3605,-2.3576,-2.358,-2.3582,-2.3583,-2.3687,-2.3687,0,0,0,0,0,0,-2.3286,-2.33,-2.3398,-2.3403,-2.3346,-2.3404,-2.3414,-2.3436,-2.3488,-2.3495,-2.3463,-2.3464,-2.3538,-2.3545,-2.3552,-2.3592,-2.358,-2.3584,-2.3586,-2.3686,-2.3687,-2.3687,0,0,0,0,0,0,-2.3283,-2.3294,-2.3395,-2.3352,-2.3366,-2.3407,-2.3431,-2.3438,-2.3455,-2.3497,-2.3504,-2.3473,-2.3538,-2.3547,-2.3585,-2.3595,-2.3585,-2.3589,-2.3685,-2.3686,-2.3687,-2.3671,0,0,0,0,0,0,-2.3279,-2.3293,-2.3306,-2.3352,-2.3368,-2.3427,-2.3432,-2.344,-2.3461,-2.3463,-2.3508,-2.3515,-2.3538,-2.358,-2.3589,-2.36,-2.3592,-2.3685,-2.3686,-2.3687,-2.3671,-2.3671,-2.3672,0,0,0,0,0,-2.3274,-2.3298,-2.3306,-2.3318,-2.3385,-2.3427,-2.3436,-2.3463,-2.3462,-2.3475,-2.3502,-2.3514,-2.3593,-2.3583,-2.3594,-2.3606,-2.3684,-2.3685,-2.3687,-2.3671,-2.3671,-2.3672,0,0,0,0,0,0,-2.3251,-2.3305,-2.3315,-2.3354,-2.3386,-2.3432,-2.3449,-2.3462,-2.3494,-2.3495,-2.3526,-2.3535,-2.3571,-2.3592,-2.3581,-2.3639,-2.3639,-2.3642,-2.3623,-2.3624,-2.3624,-2.3618,-2.3595,0,0,0,0,0,-2.3251,-2.3281,-2.3326,-2.3357,-2.3373,-2.3408,-2.3428,-2.3445,-2.3479,-2.3493,-2.3522,-2.3554,-2.3586,-2.3606,-2.3638,-2.3674,-2.3684,-2.3688,-2.3688,-2.3688,-2.3691,-2.3711,-2.3713,-2.3691,-2.3691,-2.3691,0,0,-2.325,-2.3283,-2.33,-2.3353,-2.338,-2.341,-2.3419,-2.3451,-2.3474,-2.3497,-2.3535,-2.3558,-2.3595,-2.3632,-2.365,-2.3651,-2.3699,-2.369,-2.369,-2.3692,-2.3712,-2.3714,-2.3716,-2.3692,-2.3692,-2.3692,0,0,-2.3264,-2.3293,-2.3321,-2.3348,-2.3388,-2.3412,-2.3418,-2.3462,-2.3479,-2.3517,-2.3535,-2.3562,-2.3617,-2.3642,-2.3663,-2.3686,-2.3698,-2.3695,-2.3697,-2.3716,-2.3718,-2.3719,-2.3727,-2.373,-2.3698,-2.3698,-2.3698,0,-2.3258,-2.3305,-2.3334,-2.3365,-2.3387,-2.341,-2.3439,-2.3463,-2.3511,-2.3526,-2.3527,-2.3595,-2.3622,-2.3665,-2.3671,-2.3687,-2.3695,-2.369,-2.3715,-2.3717,-2.3719,-2.3727,-2.373,-2.3697,-2.3697,-2.3697,-2.3697,0,-2.3295,-2.3327,-2.3345,-2.3392,-2.3416,-2.3446,-2.3478,-2.3499,-2.3514,-2.3537,-2.3576,-2.3609,-2.3647,-2.3659,-2.3674,-2.3704,-2.3704,-2.371,-2.371,-2.372,-2.3728,-2.3731,-2.3696,-2.3696,-2.3697,-2.3697,0,0,-2.3297,-2.3359,-2.3365,-2.3386,-2.3432,-2.3457,-2.3487,-2.3526,-2.3543,-2.3575,-2.3601,-2.3646,-2.3652,-2.3675,-2.3693,-2.371,-2.3725,-2.3714,-2.3715,-2.3714,-2.3759,-2.3754,-2.3757,-2.3734,-2.3735,-2.3735,-2.3756,0,-2.3316,-2.3372,-2.3398,-2.3442,-2.3471,-2.3494,-2.352,-2.355,-2.3573,-2.3601,-2.3625,-2.3656,-2.3662,-2.3676,-2.3694,-2.372,-2.3735,-2.3719,-2.3757,-2.3758,-2.3746,-2.3761,-2.3756,-2.3774,-2.3759,-2.376,-2.376,0,-2.3347,-2.3379,-2.3426,-2.3468,-2.3482,-2.3505,-2.3542,-2.3568,-2.3603,-2.3618,-2.3643,-2.3661,-2.3693,-2.3692,-2.3735,-2.3724,-2.3741,-2.3756,-2.3757,-2.3761,-2.3759,-2.3765,-2.3781,-2.3783,-2.3765,-2.3765,-2.3765,0,-2.3342,-2.3398,-2.3433,-2.3451,-2.3501,-2.3516,-2.3538,-2.3573,-2.3594,-2.3626,-2.3639,-2.3674,-2.3693,-2.372,-2.3746,-2.3743,-2.3787,-2.3788,-2.3799,-2.3799,-2.3807,-2.3806,-2.3825,-2.3819,-2.3819,-2.3819,-2.3819,0,-2.3361,-2.3388,-2.3432,-2.3453,-2.3484,-2.3514,-2.3543,-2.3567,-2.3597,-2.3623,-2.3644,-2.3668,-2.3701,-2.3729,-2.375,-2.3782,-2.3791,-2.3803,-2.3808,-2.3801,-2.3799,-2.3812,-2.3811,-2.382,-2.382,-2.382,-2.3819,0,-2.3361,-2.3391,-2.3431,-2.3475,-2.3487,-2.3508,-2.3545,-2.3567,-2.359,-2.3622,-2.3631,-2.3668,-2.3701,-2.373,-2.3774,-2.3788,-2.3821,-2.3828,-2.381,-2.3812,-2.3822,-2.382,-2.3849,-2.3854,-2.3845,-2.3845,-2.3845,0,-2.3371,-2.3393,-2.3439,-2.3458,-2.348,-2.351,-2.3532,-2.3561,-2.3583,-2.3624,-2.364,-2.3675,-2.3705,-2.3757,-2.3787,-2.3821,-2.3828,-2.3836,-2.3833,-2.3825,-2.3827,-2.3826,-2.3828,-2.3836,-2.3836,-2.3836,-2.3836,0,-2.3385,-2.3398,-2.3429,-2.3465,-2.3491,-2.352,-2.355,-2.3564,-2.36,-2.3623,-2.3657,-2.368,-2.3726,-2.376,-2.3797,-2.3818,-2.3833,-2.3836,-2.3841,-2.3833,-2.3821,-2.3827,-2.3809,-2.3835,-2.3835,-2.3835,-2.3835,-2.3835,-2.339,-2.341,-2.3445,-2.3479,-2.3505,-2.3532,-2.3554,-2.358,-2.361,-2.3649,-2.3665,-2.37,-2.3734,-2.3785,-2.3807,-2.3834,-2.3837,-2.3843,-2.3844,-2.3845,-2.3844,-2.3817,-2.3841,-2.3841,-2.3841,-2.3841,-2.3841,0,-2.3404,-2.3428,-2.3458,-2.35,-2.3526,-2.3538,-2.3572,-2.3592,-2.3623,-2.3654,-2.3683,-2.3722,-2.3756,-2.3788,-2.3823,-2.3839,-2.3846,-2.3847,-2.3846,-2.385,-2.384,-2.3833,-2.384,-2.384,-2.384,-2.384,-2.384,-2.384,-2.3414,-2.3449,-2.3466,-2.3513,-2.3537,-2.3572,-2.3591,-2.3616,-2.364,-2.3684,-2.3712,-2.3733,-2.3764,-2.3802,-2.3832,-2.3841,-2.3853,-2.3852,-2.3862,-2.3851,-2.3851,-2.3851,-2.3844,-2.3854,-2.3854,-2.387,-2.387,-2.387]}]]